| time (UTC) | temp C | wind direction | speed KPH | gust KPH | rain 1hr cm | rain 24hr cm | rain mn cm | humidity % | barometer mb |
| 20260510192800 | 33 | 141 | 20.9 | 27.4 | 0.00 | 0.00 | 0.00 | ||
| 20260510192300 | 33 | 63 | 19.3 | 16.1 | 0.00 | 0.00 | 0.00 | ||
| 20260510191759 | 34 | 131 | 19.3 | 20.9 | 0.00 | 0.00 | 0.00 | ||
| 20260510191559 | 34 | 143 | 19.3 | 17.7 | 0.00 | 0.00 | 0.00 | ||
| 20260510191257 | 34 | 143 | 19.3 | 17.7 | 0.00 | 0.00 | 0.00 | ||
| 20260510190757 | 34 | 107 | 19.3 | 24.1 | 0.00 | 0.00 | 0.00 | ||
| 20260510190257 | 34 | 167 | 20.9 | 9.7 | 0.00 | 0.00 | 0.00 | ||
| 20260510185755 | 33 | 132 | 22.5 | 22.5 | 0.00 | 0.00 | 0.00 | ||
| 20260510185255 | 33 | 113 | 20.9 | 20.9 | 0.00 | 0.00 | 0.00 | ||
| 20260510184755 | 33 | 134 | 14.5 | 14.5 | 0.00 | 0.00 | 0.00 | ||
| 20260510184252 | 33 | 138 | 16.1 | 19.3 | 0.00 | 0.00 | 0.00 | ||
| 20260510183753 | 33 | 146 | 17.7 | 19.3 | 0.00 | 0.00 | 0.00 | ||
| 20260510183253 | 33 | 125 | 19.3 | 17.7 | 0.00 | 0.00 | 0.00 | ||
| 20260510182750 | 33 | 124 | 12.9 | 24.1 | 0.00 | 0.00 | 0.00 | ||
| 20260510182251 | 33 | 163 | 14.5 | 12.9 | 0.00 | 0.00 | 0.00 | ||
| 20260510181751 | 33 | 166 | 19.3 | 25.7 | 0.00 | 0.00 | 0.00 | ||
| 20260510181248 | 33 | 83 | 14.5 | 19.3 | 0.00 | 0.00 | 0.00 | ||
| 20260510180749 | 33 | 125 | 17.7 | 17.7 | 0.00 | 0.00 | 0.00 | ||
| 20260510180249 | 33 | 177 | 17.7 | 16.1 | 0.00 | 0.00 | 0.00 | ||
| 20260510175746 | 32 | 127 | 12.9 | 12.9 | 0.00 | 0.00 | 0.00 | ||
| 20260510175247 | 33 | 136 | 17.7 | 20.9 | 0.00 | 0.00 | 0.00 | ||
| 20260510174747 | 32 | 172 | 17.7 | 27.4 | 0.00 | 0.00 | 0.00 | ||
| 20260510174244 | 33 | 145 | 11.3 | 20.9 | 0.00 | 0.00 | 0.00 | ||
| 20260510173745 | 33 | 132 | 12.9 | 6.4 | 0.00 | 0.00 | 0.00 | ||
| 20260510173245 | 31 | 156 | 14.5 | 17.7 | 0.00 | 0.00 | 0.00 | ||
| 20260510173122 | 31 | 141 | 19.3 | 19.3 | 0.00 | 0.00 | 0.00 | ||
| 20260510172742 | 31 | 141 | 19.3 | 19.3 | 0.00 | 0.00 | 0.00 | ||
| 20260510172243 | 31 | 110 | 17.7 | 16.1 | 0.00 | 0.00 | 0.00 | ||
| 20260510171743 | 31 | 159 | 17.7 | 16.1 | 0.00 | 0.00 | 0.00 | ||
| 20260510170741 | 30 | 113 | 16.1 | 12.9 | 0.00 | 0.00 | 0.00 | ||
| 20260510170241 | 30 | 108 | 12.9 | 11.3 | 0.00 | 0.00 | 0.00 | ||
| 20260510165739 | 29 | 100 | 12.9 | 14.5 | 0.00 | 0.00 | 0.00 | ||
| 20260510165239 | 29 | 79 | 17.7 | 20.9 | 0.00 | 0.00 | 0.00 | ||
| 20260510164739 | 29 | 97 | 16.1 | 14.5 | 0.00 | 0.00 | 0.00 | ||
| 20260510164237 | 29 | 89 | 19.3 | 22.5 | 0.00 | 0.00 | 0.00 | ||
| 20260510163737 | 29 | 98 | 20.9 | 16.1 | 0.00 | 0.00 | 0.00 | ||
| 20260510163237 | 30 | 121 | 17.7 | 20.9 | 0.00 | 0.00 | 0.00 | ||
| 20260510162735 | 29 | 115 | 16.1 | 19.3 | 0.00 | 0.00 | 0.00 | ||
| 20260510162235 | 28 | 114 | 17.7 | 14.5 | 0.00 | 0.00 | 0.00 | ||
| 20260510161735 | 29 | 97 | 17.7 | 16.1 | 0.00 | 0.00 | 0.00 | ||
| 20260510161233 | 28 | 110 | 16.1 | 9.7 | 0.00 | 0.00 | 0.00 | ||
| 20260510160733 | 28 | 114 | 16.1 | 12.9 | 0.00 | 0.00 | 0.00 | ||
| 20260510160233 | 28 | 104 | 19.3 | 16.1 | 0.00 | 0.00 | 0.00 | ||
| 20260510155731 | 28 | 113 | 12.9 | 14.5 | 0.00 | 0.00 | 0.00 | ||
| 20260510155231 | 27 | 75 | 12.9 | 16.1 | 0.00 | 0.00 | 0.00 | ||
| 20260510154731 | 28 | 70 | 14.5 | 11.3 | 0.00 | 0.00 | 0.00 | ||
| 20260510154228 | 28 | 125 | 12.9 | 11.3 | 0.00 | 0.00 | 0.00 | ||
| 20260510153728 | 28 | 122 | 12.9 | 12.9 | 0.00 | 0.00 | 0.00 | ||
| 20260510153228 | 27 | 128 | 11.3 | 14.5 | 0.00 | 0.00 | 0.00 | ||
| 20260510152726 | 27 | 42 | 11.3 | 16.1 | 0.00 | 0.00 | 0.00 | ||
| 20260510151727 | 27 | 118 | 12.9 | 9.7 | 0.00 | 0.00 | 0.00 | ||
| 20260510151224 | 26 | 115 | 16.1 | 11.3 | 0.00 | 0.00 | 0.00 | ||
| 20260510150226 | 26 | 94 | 16.1 | 16.1 | 0.00 | 0.00 | 0.00 | ||
| 20260510145722 | 27 | 108 | 17.7 | 16.1 | 0.00 | 0.00 | 0.00 | ||
| 20260510145223 | 27 | 111 | 12.9 | 12.9 | 0.00 | 0.00 | 0.00 | ||
| 20260510144723 | 27 | 138 | 11.3 | 19.3 | 0.00 | 0.00 | 0.00 | ||
| 20260510144220 | 26 | 149 | 17.7 | 22.5 | 0.00 | 0.00 | 0.00 | ||
| 20260510143721 | 26 | 165 | 17.7 | 12.9 | 0.00 | 0.00 | 0.00 | ||
| 20260510143221 | 26 | 166 | 17.7 | 27.4 | 0.00 | 0.00 | 0.00 | ||
| 20260510142719 | 26 | 134 | 17.7 | 24.1 | 0.00 | 0.00 | 0.00 | ||
| 20260510142219 | 26 | 163 | 25.7 | 25.7 | 0.00 | 0.00 | 0.00 | ||
| 20260510141719 | 26 | 165 | 22.5 | 19.3 | 0.00 | 0.00 | 0.00 | ||
| 20260510141217 | 26 | 162 | 22.5 | 33.8 | 0.00 | 0.00 | 0.00 | ||
| 20260510140717 | 26 | 183 | 22.5 | 22.5 | 0.00 | 0.00 | 0.00 | ||
| 20260510140217 | 26 | 172 | 27.4 | 30.6 | 0.00 | 0.00 | 0.00 | ||
| 20260510135715 | 25 | 201 | 9.7 | 20.9 | 0.00 | 0.00 | 0.00 | ||
| 20260510135215 | 25 | 187 | 19.3 | 27.4 | 0.00 | 0.00 | 0.00 | ||
| 20260510134716 | 25 | 113 | 22.5 | 24.1 | 0.00 | 0.00 | 0.00 | ||
| 20260510134213 | 25 | 173 | 19.3 | 25.7 | 0.00 | 0.00 | 0.00 | ||
| 20260510133713 | 25 | 180 | 16.1 | 16.1 | 0.00 | 0.00 | 0.00 | ||
| 20260510133247 | 24 | 187 | 22.5 | 20.9 | 0.00 | 0.00 | 0.00 | ||
| 20260510133214 | 24 | 187 | 22.5 | 20.9 | 0.00 | 0.00 | 0.00 | ||
| 20260510132711 | 25 | 184 | 20.9 | 25.7 | 0.00 | 0.00 | 0.00 | ||
| 20260510132212 | 25 | 184 | 22.5 | 27.4 | 0.00 | 0.00 | 0.00 | ||
| 20260510131712 | 25 | 211 | 24.1 | 24.1 | 0.00 | 0.00 | 0.00 | ||
| 20260510131210 | 25 | 160 | 20.9 | 24.1 | 0.00 | 0.00 | 0.00 | ||
| 20260510130710 | 25 | 142 | 22.5 | 27.4 | 0.00 | 0.00 | 0.00 | ||
| 20260510130210 | 25 | 188 | 24.1 | 29.0 | 0.00 | 0.00 | 0.00 | ||
| 20260510125708 | 24 | 195 | 20.9 | 17.7 | 0.00 | 0.00 | 0.00 | ||
| 20260510125208 | 24 | 198 | 24.1 | 19.3 | 0.00 | 0.00 | 0.00 | ||
| 20260510124708 | 24 | 180 | 19.3 | 32.2 | 0.00 | 0.00 | 0.00 | ||
| 20260510124206 | 23 | 170 | 20.9 | 22.5 | 0.00 | 0.00 | 0.00 | ||
| 20260510123706 | 23 | 172 | 16.1 | 14.5 | 0.00 | 0.00 | 0.00 | ||
| 20260510123207 | 23 | 191 | 19.3 | 16.1 | 0.00 | 0.00 | 0.00 | ||
| 20260510122704 | 23 | 163 | 17.7 | 12.9 | 0.00 | 0.00 | 0.00 | ||
| 20260510122205 | 23 | 187 | 17.7 | 24.1 | 0.00 | 0.00 | 0.00 | ||
| 20260510121705 | 22 | 184 | 19.3 | 16.1 | 0.00 | 0.00 | 0.00 | ||
| 20260510121202 | 22 | 188 | 14.5 | 19.3 | 0.00 | 0.00 | 0.00 | ||
| 20260510120703 | 21 | 166 | 19.3 | 14.5 | 0.00 | 0.00 | 0.00 | ||
| 20260510115701 | 21 | 163 | 11.3 | 16.1 | 0.00 | 0.00 | 0.00 | ||
| 20260510115201 | 21 | 166 | 14.5 | 22.5 | 0.00 | 0.00 | 0.00 | ||
| 20260510114700 | 21 | 183 | 14.5 | 17.7 | 0.00 | 0.00 | 0.00 | ||
| 20260510114302 | 21 | 179 | 19.3 | 17.7 | 0.00 | 0.00 | 0.00 | ||
| 20260510114158 | 21 | 179 | 19.3 | 17.7 | 0.00 | 0.00 | 0.00 | ||
| 20260510113658 | 21 | 166 | 16.1 | 22.5 | 0.00 | 0.00 | 0.00 | ||
| 20260510113159 | 21 | 155 | 14.5 | 12.9 | 0.00 | 0.00 | 0.00 | ||
| 20260510112655 | 21 | 191 | 16.1 | 16.1 | 0.00 | 0.00 | 0.00 | ||
| 20260510112155 | 21 | 159 | 12.9 | 11.3 | 0.00 | 0.00 | 0.00 | ||
| 20260510111656 | 21 | 186 | 14.5 | 16.1 | 0.00 | 0.00 | 0.00 | ||
| 20260510111153 | 21 | 146 | 19.3 | 14.5 | 0.00 | 0.00 | 0.00 | ||
| 20260510110654 | 21 | 163 | 12.9 | 12.9 | 0.00 | 0.00 | 0.00 | ||
| 20260510110154 | 21 | 158 | 12.9 | 12.9 | 0.00 | 0.00 | 0.00 | ||
| 20260510105731 | 21 | 186 | 12.9 | 16.1 | 0.00 | 0.00 | 0.00 | ||
| 20260510105651 | 21 | 186 | 12.9 | 16.1 | 0.00 | 0.00 | 0.00 | ||
| 20260510105233 | 21 | 146 | 11.3 | 9.7 | 0.00 | 0.00 | 0.00 | ||
| 20260510105152 | 21 | 146 | 11.3 | 9.7 | 0.00 | 0.00 | 0.00 | ||
| 20260510104652 | 21 | 163 | 11.3 | 9.7 | 0.00 | 0.00 | 0.00 | ||
| 20260510104150 | 21 | 176 | 11.3 | 9.7 | 0.00 | 0.00 | 0.00 | ||
| 20260510103650 | 21 | 166 | 11.3 | 14.5 | 0.00 | 0.00 | 0.00 | ||
| 20260510103150 | 21 | 165 | 14.5 | 12.9 | 0.00 | 0.00 | 0.00 | ||
| 20260510102648 | 21 | 155 | 14.5 | 14.5 | 0.00 | 0.00 | 0.00 | ||
| 20260510102148 | 21 | 181 | 12.9 | 11.3 | 0.00 | 0.00 | 0.00 | ||
| 20260510101649 | 20 | 176 | 12.9 | 14.5 | 0.00 | 0.00 | 0.00 | ||
| 20260510101146 | 20 | 139 | 9.7 | 9.7 | 0.00 | 0.00 | 0.00 | ||
| 20260510100647 | 20 | 197 | 9.7 | 11.3 | 0.00 | 0.00 | 0.00 | ||
| 20260510100146 | 19 | 169 | 8.0 | 6.4 | 0.00 | 0.00 | 0.00 | ||
| 20260510095644 | 19 | 177 | 6.4 | 6.4 | 0.00 | 0.00 | 0.00 | ||
| 20260510095144 | 19 | 177 | 0.0 | 0.0 | 0.00 | 0.00 | 0.00 | ||
| 20260510094645 | 19 | 177 | 0.0 | 0.0 | 0.00 | 0.00 | 0.00 | ||
| 20260510094142 | 19 | 177 | 0.0 | 0.0 | 0.00 | 0.00 | 0.00 | ||
| 20260510093643 | 19 | 177 | 0.0 | 0.0 | 0.00 | 0.00 | 0.00 | ||
| 20260510093143 | 19 | 177 | 0.0 | 0.0 | 0.00 | 0.00 | 0.00 | ||
| 20260510092641 | 19 | 177 | 0.0 | 0.0 | 0.00 | 0.00 | 0.00 | ||
| 20260510092140 | 19 | 177 | 0.0 | 0.0 | 0.00 | 0.00 | 0.00 | ||
| 20260510091640 | 19 | 177 | 0.0 | 0.0 | 0.00 | 0.00 | 0.00 | ||
| 20260510091138 | 19 | 104 | 0.0 | 0.0 | 0.00 | 0.00 | 0.00 | ||
| 20260510090638 | 19 | 104 | 0.0 | 0.0 | 0.00 | 0.00 | 0.00 | ||
| 20260510090139 | 19 | 104 | 0.0 | 0.0 | 0.00 | 0.00 | 0.00 | ||
| 20260510085636 | 19 | 104 | 0.0 | 0.0 | 0.00 | 0.00 | 0.00 | ||
| 20260510085136 | 20 | 104 | 3.2 | 0.0 | 0.00 | 0.00 | 0.00 | ||
| 20260510084637 | 19 | 121 | 3.2 | 3.2 | 0.00 | 0.00 | 0.00 | ||
| 20260510084134 | 20 | 139 | 4.8 | 3.2 | 0.00 | 0.00 | 0.00 | ||
| 20260510083635 | 20 | 180 | 4.8 | 3.2 | 0.00 | 0.00 | 0.00 | ||
| 20260510083135 | 20 | 194 | 8.0 | 6.4 | 0.00 | 0.00 | 0.00 | ||
| 20260510082633 | 20 | 156 | 8.0 | 8.0 | 0.00 | 0.00 | 0.00 | ||
| 20260510082133 | 20 | 160 | 6.4 | 8.0 | 0.00 | 0.00 | 0.00 | ||
| 20260510081634 | 20 | 162 | 9.7 | 8.0 | 0.00 | 0.00 | 0.00 | ||
| 20260510081131 | 20 | 172 | 6.4 | 6.4 | 0.00 | 0.00 | 0.00 | ||
| 20260510080632 | 19 | 172 | 8.0 | 0.0 | 0.00 | 0.00 | 0.00 | ||
| 20260510080132 | 19 | 163 | 0.0 | 0.0 | 0.00 | 0.00 | 0.00 | ||
| 20260510075630 | 20 | 163 | 0.0 | 0.0 | 0.00 | 0.00 | 0.00 | ||
| 20260510075130 | 20 | 163 | 0.0 | 0.0 | 0.00 | 0.00 | 0.00 | ||
| 20260510074631 | 20 | 159 | 4.8 | 0.0 | 0.00 | 0.00 | 0.00 | ||
| 20260510074128 | 20 | 176 | 4.8 | 3.2 | 0.00 | 0.00 | 0.00 | ||
| 20260510073628 | 20 | 176 | 6.4 | 4.8 | 0.00 | 0.00 | 0.00 | ||
| 20260510073129 | 20 | 190 | 0.0 | 0.0 | 0.00 | 0.00 | 0.00 | ||
| 20260510072626 | 20 | 190 | 0.0 | 0.0 | 0.00 | 0.00 | 0.00 | ||
| 20260510072127 | 20 | 190 | 0.0 | 0.0 | 0.00 | 0.00 | 0.00 | ||
| 20260510071627 | 20 | 190 | 0.0 | 0.0 | 0.00 | 0.00 | 0.00 | ||
| 20260510071125 | 20 | 184 | 4.8 | 4.8 | 0.00 | 0.00 | 0.00 | ||
| 20260510070625 | 20 | 165 | 3.2 | 3.2 | 0.00 | 0.00 | 0.00 | ||
| 20260510070411 | 20 | 186 | 4.8 | 3.2 | 0.00 | 0.00 | 0.00 | ||
| 20260510070126 | 20 | 186 | 4.8 | 3.2 | 0.00 | 0.00 | 0.00 | ||
| 20260510065623 | 20 | 163 | 3.2 | 3.2 | 0.00 | 0.00 | 0.00 | ||
| 20260510065124 | 20 | 170 | 4.8 | 6.4 | 0.00 | 0.00 | 0.00 | ||
| 20260510064624 | 20 | 166 | 4.8 | 6.4 | 0.00 | 0.00 | 0.00 | ||
| 20260510064121 | 20 | 179 | 3.2 | 4.8 | 0.00 | 0.00 | 0.00 | ||
| 20260510063622 | 20 | 158 | 3.2 | 3.2 | 0.00 | 0.00 | 0.00 | ||
| 20260510063122 | 21 | 173 | 1.6 | 3.2 | 0.00 | 0.00 | 0.00 | ||
| 20260510062620 | 21 | 158 | 3.2 | 3.2 | 0.00 | 0.00 | 0.00 | ||
| 20260510062120 | 21 | 150 | 3.2 | 3.2 | 0.00 | 0.00 | 0.00 | ||
| 20260510061621 | 21 | 173 | 4.8 | 4.8 | 0.00 | 0.00 | 0.00 | ||
| 20260510061118 | 21 | 158 | 4.8 | 4.8 | 0.00 | 0.00 | 0.00 | ||
| 20260510060619 | 21 | 149 | 3.2 | 3.2 | 0.00 | 0.00 | 0.00 | ||
| 20260510060119 | 21 | 150 | 3.2 | 3.2 | 0.00 | 0.00 | 0.00 | ||
| 20260510055617 | 21 | 160 | 4.8 | 3.2 | 0.00 | 0.00 | 0.00 | ||
| 20260510055117 | 21 | 167 | 6.4 | 6.4 | 0.00 | 0.00 | 0.00 | ||
| 20260510054617 | 22 | 187 | 8.0 | 6.4 | 0.00 | 0.00 | 0.00 | ||
| 20260510054114 | 22 | 225 | 9.7 | 11.3 | 0.00 | 0.00 | 0.00 | ||
| 20260510053614 | 22 | 180 | 8.0 | 11.3 | 0.00 | 0.00 | 0.00 | ||
| 20260510053115 | 22 | 197 | 8.0 | 6.4 | 0.00 | 0.00 | 0.00 | ||
| 20260510052611 | 22 | 187 | 6.4 | 6.4 | 0.00 | 0.00 | 0.00 | ||
| 20260510052112 | 22 | 193 | 4.8 | 6.4 | 0.00 | 0.00 | 0.00 | ||
| 20260510051612 | 21 | 177 | 4.8 | 4.8 | 0.00 | 0.00 | 0.00 | ||
| 20260510051110 | 22 | 169 | 3.2 | 3.2 | 0.00 | 0.00 | 0.00 | ||
| 20260510050610 | 22 | 193 | 4.8 | 4.8 | 0.00 | 0.00 | 0.00 | ||
| 20260510045608 | 22 | 198 | 8.0 | 4.8 | 0.00 | 0.00 | 0.00 | ||
| 20260510045108 | 22 | 177 | 8.0 | 6.4 | 0.00 | 0.00 | 0.00 | ||
| 20260510044609 | 22 | 166 | 8.0 | 6.4 | 0.00 | 0.00 | 0.00 | ||
| 20260510044106 | 22 | 181 | 8.0 | 9.7 | 0.00 | 0.00 | 0.00 | ||
| 20260510043607 | 22 | 169 | 8.0 | 8.0 | 0.00 | 0.00 | 0.00 | ||
| 20260510043107 | 22 | 186 | 6.4 | 8.0 | 0.00 | 0.00 | 0.00 | ||
| 20260510042604 | 22 | 180 | 6.4 | 6.4 | 0.00 | 0.00 | 0.00 | ||
| 20260510042105 | 22 | 174 | 4.8 | 8.0 | 0.00 | 0.00 | 0.00 | ||
| 20260510041605 | 23 | 176 | 4.8 | 4.8 | 0.00 | 0.00 | 0.00 | ||
| 20260510041103 | 23 | 177 | 6.4 | 8.0 | 0.00 | 0.00 | 0.00 | ||
| 20260510040709 | 23 | 172 | 6.4 | 6.4 | 0.00 | 0.00 | 0.00 | ||
| 20260510040603 | 23 | 172 | 6.4 | 6.4 | 0.00 | 0.00 | 0.00 | ||
| 20260510040103 | 23 | 176 | 6.4 | 4.8 | 0.00 | 0.00 | 0.00 | ||
| 20260510035601 | 23 | 176 | 4.8 | 6.4 | 0.00 | 0.00 | 0.00 | ||
| 20260510035101 | 24 | 170 | 4.8 | 4.8 | 0.00 | 0.00 | 0.00 | ||
| 20260510034602 | 24 | 173 | 4.8 | 3.2 | 0.00 | 0.00 | 0.00 | ||
| 20260510034059 | 24 | 158 | 4.8 | 3.2 | 0.00 | 0.00 | 0.00 | ||
| 20260510033559 | 24 | 165 | 6.4 | 4.8 | 0.00 | 0.00 | 0.00 | ||
| 20260510033100 | 24 | 190 | 6.4 | 6.4 | 0.00 | 0.00 | 0.00 | ||
| 20260510032557 | 25 | 174 | 6.4 | 6.4 | 0.00 | 0.00 | 0.00 | ||
| 20260510032058 | 25 | 195 | 6.4 | 4.8 | 0.00 | 0.00 | 0.00 | ||
| 20260510031558 | 25 | 183 | 6.4 | 6.4 | 0.00 | 0.00 | 0.00 | ||
| 20260510031056 | 25 | 174 | 6.4 | 4.8 | 0.00 | 0.00 | 0.00 | ||
| 20260510030556 | 26 | 160 | 3.2 | 6.4 | 0.00 | 0.00 | 0.00 | ||
| 20260510030056 | 26 | 146 | 4.8 | 4.8 | 0.00 | 0.00 | 0.00 | ||
| 20260510025554 | 26 | 165 | 6.4 | 4.8 | 0.00 | 0.00 | 0.00 | ||
| 20260510025054 | 26 | 181 | 8.0 | 8.0 | 0.00 | 0.00 | 0.00 | ||
| 20260510024555 | 26 | 166 | 6.4 | 4.8 | 0.00 | 0.00 | 0.00 | ||
| 20260510024052 | 27 | 150 | 6.4 | 6.4 | 0.00 | 0.00 | 0.00 | ||
| 20260510023553 | 27 | 138 | 8.0 | 6.4 | 0.00 | 0.00 | 0.00 | ||
| 20260510023053 | 27 | 135 | 8.0 | 8.0 | 0.00 | 0.00 | 0.00 | ||
| 20260510022550 | 27 | 149 | 8.0 | 6.4 | 0.00 | 0.00 | 0.00 | ||
| 20260510022051 | 27 | 129 | 9.7 | 11.3 | 0.00 | 0.00 | 0.00 | ||
| 20260510021549 | 27 | 146 | 9.7 | 8.0 | 0.00 | 0.00 | 0.00 | ||
| 20260510021047 | 28 | 145 | 9.7 | 8.0 | 0.00 | 0.00 | 0.00 | ||
| 20260510020547 | 28 | 162 | 11.3 | 8.0 | 0.00 | 0.00 | 0.00 | ||
| 20260510020047 | 28 | 152 | 8.0 | 8.0 | 0.00 | 0.00 | 0.00 | ||
| 20260510015545 | 28 | 131 | 9.7 | 9.7 | 0.00 | 0.00 | 0.00 | ||
| 20260510015045 | 28 | 129 | 11.3 | 8.0 | 0.00 | 0.00 | 0.00 | ||
| 20260510014545 | 28 | 135 | 9.7 | 8.0 | 0.00 | 0.00 | 0.00 | ||
| 20260510014043 | 28 | 121 | 6.4 | 11.3 | 0.00 | 0.00 | 0.00 | ||
| 20260510013543 | 29 | 117 | 8.0 | 9.7 | 0.00 | 0.00 | 0.00 | ||
| 20260510013043 | 29 | 131 | 9.7 | 6.4 | 0.00 | 0.00 | 0.00 | ||
| 20260510012541 | 29 | 120 | 6.4 | 6.4 | 0.00 | 0.00 | 0.00 | ||
| 20260510012041 | 30 | 117 | 4.8 | 6.4 | 0.00 | 0.00 | 0.00 | ||
| 20260510011541 | 30 | 118 | 8.0 | 12.9 | 0.00 | 0.00 | 0.00 | ||
| 20260510011039 | 30 | 113 | 9.7 | 11.3 | 0.00 | 0.00 | 0.00 | ||
| 20260510010539 | 30 | 115 | 8.0 | 8.0 | 0.00 | 0.00 | 0.00 | ||
| 20260510010039 | 30 | 115 | 9.7 | 9.7 | 0.00 | 0.00 | 0.00 | ||
| 20260510005537 | 30 | 103 | 6.4 | 8.0 | 0.00 | 0.00 | 0.00 | ||
| 20260510005037 | 30 | 101 | 11.3 | 9.7 | 0.00 | 0.00 | 0.00 | ||
| 20260510004646 | 31 | 142 | 12.9 | 12.9 | 0.00 | 0.00 | 0.00 | ||
| 20260510004537 | 31 | 142 | 12.9 | 12.9 | 0.00 | 0.00 | 0.00 | ||
| 20260510004035 | 31 | 158 | 11.3 | 11.3 | 0.00 | 0.00 | 0.00 | ||
| 20260510003535 | 31 | 138 | 9.7 | 8.0 | 0.00 | 0.00 | 0.00 | ||
| 20260510003036 | 31 | 128 | 12.9 | 11.3 | 0.00 | 0.00 | 0.00 | ||
| 20260510002533 | 31 | 152 | 12.9 | 9.7 | 0.00 | 0.00 | 0.00 | ||
| 20260510002033 | 31 | 121 | 12.9 | 14.5 | 0.00 | 0.00 | 0.00 | ||
| 20260510001534 | 31 | 111 | 12.9 | 12.9 | 0.00 | 0.00 | 0.00 | ||
| 20260510001031 | 32 | 139 | 12.9 | 14.5 | 0.00 | 0.00 | 0.00 | ||
| 20260510000532 | 32 | 118 | 11.3 | 9.7 | 0.00 | 0.00 | 0.00 | ||
| 20260510000032 | 32 | 139 | 12.9 | 11.3 | 0.00 | 0.00 | 0.00 | ||
| 20260509235529 | 32 | 145 | 12.9 | 9.7 | 0.00 | 0.00 | 0.00 | ||
| 20260509234530 | 32 | 125 | 17.7 | 11.3 | 0.00 | 0.00 | 0.00 | ||
| 20260509234027 | 32 | 129 | 11.3 | 11.3 | 0.00 | 0.00 | 0.00 | ||
| 20260509233527 | 31 | 91 | 16.1 | 16.1 | 0.00 | 0.00 | 0.00 | ||
| 20260509233027 | 32 | 122 | 12.9 | 9.7 | 0.00 | 0.00 | 0.00 | ||
| 20260509232524 | 32 | 97 | 14.5 | 19.3 | 0.00 | 0.00 | 0.00 | ||
| 20260509232025 | 33 | 93 | 12.9 | 17.7 | 0.00 | 0.00 | 0.00 | ||
| 20260509231525 | 32 | 167 | 8.0 | 12.9 | 0.00 | 0.00 | 0.00 | ||
| 20260509230522 | 33 | 173 | 9.7 | 9.7 | 0.00 | 0.00 | 0.00 | ||
| 20260509230022 | 33 | 166 | 8.0 | 8.0 | 0.00 | 0.00 | 0.00 | ||
| 20260509225520 | 32 | 184 | 9.7 | 8.0 | 0.00 | 0.00 | 0.00 | ||
| 20260509225020 | 32 | 145 | 12.9 | 9.7 | 0.00 | 0.00 | 0.00 | ||
| 20260509224520 | 32 | 98 | 9.7 | 11.3 | 0.00 | 0.00 | 0.00 | ||
| 20260509224018 | 32 | 80 | 11.3 | 9.7 | 0.00 | 0.00 | 0.00 | ||
| 20260509223518 | 32 | 98 | 14.5 | 11.3 | 0.00 | 0.00 | 0.00 | ||
| 20260509223018 | 32 | 117 | 12.9 | 17.7 | 0.00 | 0.00 | 0.00 | ||
| 20260509222516 | 34 | 150 | 16.1 | 12.9 | 0.00 | 0.00 | 0.00 | ||
| 20260509222016 | 33 | 187 | 11.3 | 11.3 | 0.00 | 0.00 | 0.00 | ||
| 20260509221516 | 33 | 145 | 14.5 | 12.9 | 0.00 | 0.00 | 0.00 | ||
| 20260509221014 | 33 | 118 | 11.3 | 17.7 | 0.00 | 0.00 | 0.00 | ||
| 20260509220514 | 33 | 165 | 12.9 | 11.3 | 0.00 | 0.00 | 0.00 | ||
| 20260509220014 | 33 | 197 | 16.1 | 9.7 | 0.00 | 0.00 | 0.00 | ||
| 20260509215511 | 33 | 194 | 11.3 | 11.3 | 0.00 | 0.00 | 0.00 | ||
| 20260509215012 | 33 | 190 | 11.3 | 11.3 | 0.00 | 0.00 | 0.00 | ||
| 20260509214512 | 33 | 172 | 16.1 | 9.7 | 0.00 | 0.00 | 0.00 | ||
| 20260509214010 | 33 | 156 | 12.9 | 9.7 | 0.00 | 0.00 | 0.00 | ||
| 20260509213510 | 33 | 159 | 9.7 | 4.8 | 0.00 | 0.00 | 0.00 | ||
| 20260509213010 | 34 | 160 | 11.3 | 16.1 | 0.00 | 0.00 | 0.00 | ||
| 20260509212508 | 33 | 125 | 8.0 | 14.5 | 0.00 | 0.00 | 0.00 | ||
| 20260509212008 | 33 | 217 | 14.5 | 16.1 | 0.00 | 0.00 | 0.00 | ||
| 20260509211508 | 33 | 181 | 8.0 | 3.2 | 0.00 | 0.00 | 0.00 | ||
| 20260509211006 | 33 | 226 | 11.3 | 3.2 | 0.00 | 0.00 | 0.00 | ||
| 20260509210506 | 33 | 181 | 12.9 | 6.4 | 0.00 | 0.00 | 0.00 | ||
| 20260509210006 | 33 | 177 | 14.5 | 14.5 | 0.00 | 0.00 | 0.00 | ||
| 20260509205504 | 33 | 177 | 16.1 | 12.9 | 0.00 | 0.00 | 0.00 | ||
| 20260509205004 | 33 | 155 | 12.9 | 14.5 | 0.00 | 0.00 | 0.00 | ||
| 20260509204504 | 33 | 136 | 12.9 | 9.7 | 0.00 | 0.00 | 0.00 | ||
| 20260509204001 | 32 | 146 | 14.5 | 17.7 | 0.00 | 0.00 | 0.00 | ||
| 20260509203502 | 33 | 172 | 16.1 | 12.9 | 0.00 | 0.00 | 0.00 | ||
| 20260509203002 | 33 | 152 | 14.5 | 12.9 | 0.00 | 0.00 | 0.00 | ||
| 20260509202459 | 32 | 153 | 12.9 | 16.1 | 0.00 | 0.00 | 0.00 | ||
| 20260509201959 | 33 | 204 | 12.9 | 12.9 | 0.00 | 0.00 | 0.00 | ||
| 20260509201500 | 33 | 153 | 9.7 | 6.4 | 0.00 | 0.00 | 0.00 | ||
| 20260509200957 | 32 | 136 | 11.3 | 11.3 | 0.00 | 0.00 | 0.00 | ||
| 20260509200458 | 32 | 122 | 12.9 | 14.5 | 0.00 | 0.00 | 0.00 | ||
| 20260509195958 | 32 | 176 | 16.1 | 14.5 | 0.00 | 0.00 | 0.00 | ||
| 20260509195455 | 32 | 132 | 14.5 | 12.9 | 0.00 | 0.00 | 0.00 | ||
| 20260509194956 | 32 | 121 | 14.5 | 12.9 | 0.00 | 0.00 | 0.00 | ||
| 20260509194456 | 32 | 188 | 11.3 | 12.9 | 0.00 | 0.00 | 0.00 | ||
| 20260509193953 | 32 | 166 | 16.1 | 27.4 | 0.00 | 0.00 | 0.00 | ||
| 20260509193454 | 32 | 176 | 9.7 | 20.9 | 0.00 | 0.00 | 0.00 | ||
| 20260509192953 | 32 | 163 | 17.7 | 16.1 | 0.00 | 0.00 | 0.00 |